Time,TemperatureF,DewpointF,PressureIn,WindDirection,WindDirectionDegrees,WindSpeedMPH,WindSpeedGustMPH,Humidity,HourlyPrecipIn,Conditions,Clouds,dailyrainin,SoftwareType,DateUTC
2013-08-11 00:00:00,62.2,57.3,29.98,SSE,168,0.0,0.0,84,0.00,,,0.18,Wunderground v.1.15,2013-08-11 07:00:00,
2013-08-11 00:10:00,61.8,56.9,29.99,SSW,197,0.0,0.0,84,0.00,,,0.00,Wunderground v.1.15,2013-08-11 07:10:00,
2013-08-11 00:15:00,61.6,57.0,29.99,SSW,197,0.0,0.0,85,0.00,,,0.00,Wunderground v.1.15,2013-08-11 07:15:00,
2013-08-11 00:25:00,61.3,56.4,30.00,South,185,0.0,0.0,84,0.00,,,0.00,Wunderground v.1.15,2013-08-11 07:25:00,
2013-08-11 00:35:00,60.8,56.3,30.00,South,185,0.0,3.0,85,0.00,,,0.00,Wunderground v.1.15,2013-08-11 07:35:00,
2013-08-11 00:45:00,60.5,56.0,30.00,SSW,197,0.0,3.0,85,0.00,,,0.00,Wunderground v.1.15,2013-08-11 07:45:00,
2013-08-11 00:55:00,60.2,56.0,30.00,South,185,0.0,3.0,86,0.00,,,0.00,Wunderground v.1.15,2013-08-11 07:55:00,
2013-08-11 01:05:00,60.0,55.5,30.00,South,175,0.0,0.0,85,0.00,,,0.00,Wunderground v.1.15,2013-08-11 08:05:00,
2013-08-11 01:20:00,59.8,55.3,30.00,South,175,0.0,0.0,85,0.00,,,0.00,Wunderground v.1.15,2013-08-11 08:20:00,
2013-08-11 01:25:00,59.8,55.3,29.99,SW,229,0.0,0.0,85,0.00,,,0.00,Wunderground v.1.15,2013-08-11 08:25:00,
2013-08-11 01:30:00,59.8,55.3,30.00,South,175,0.0,0.0,85,0.00,,,0.00,Wunderground v.1.15,2013-08-11 08:30:00,
2013-08-11 01:35:00,59.6,55.1,29.99,SSW,195,0.0,1.0,85,0.00,,,0.00,Wunderground v.1.15,2013-08-11 08:35:00,
2013-08-11 01:45:00,59.3,55.1,30.00,North,4,0.0,1.0,86,0.00,,,0.00,Wunderground v.1.15,2013-08-11 08:45:00,
2013-08-11 01:55:00,58.9,54.7,30.00,South,185,1.0,1.0,86,0.00,,,0.00,Wunderground v.1.15,2013-08-11 08:55:00,
2013-08-11 02:05:00,58.7,54.8,30.01,South,185,0.0,0.0,87,0.00,,,0.00,Wunderground v.1.15,2013-08-11 09:05:00,
2013-08-11 02:15:00,58.5,54.6,30.00,South,180,0.0,0.0,87,0.00,,,0.00,Wunderground v.1.15,2013-08-11 09:15:00,
2013-08-11 02:20:00,58.4,54.9,30.01,South,180,0.0,0.0,88,0.00,,,0.00,Wunderground v.1.15,2013-08-11 09:20:00,
2013-08-11 02:30:00,58.3,54.8,30.01,SSE,168,0.0,0.0,88,0.00,,,0.00,Wunderground v.1.15,2013-08-11 09:30:00,
2013-08-11 02:35:00,58.1,54.6,30.01,NNW,328,0.0,3.0,88,0.00,,,0.00,Wunderground v.1.15,2013-08-11 09:35:00,
2013-08-11 02:45:00,58.0,54.5,30.01,SSW,199,0.0,3.0,88,0.00,,,0.00,Wunderground v.1.15,2013-08-11 09:45:00,
2013-08-11 02:55:00,57.9,54.4,30.01,South,180,0.0,3.0,88,0.00,,,0.00,Wunderground v.1.15,2013-08-11 09:55:00,
2013-08-11 03:05:00,57.9,54.4,30.01,South,175,0.0,0.0,88,0.00,,,0.00,Wunderground v.1.15,2013-08-11 10:05:00,
2013-08-11 03:15:00,57.8,54.3,30.02,South,180,1.0,2.0,88,0.00,,,0.00,Wunderground v.1.15,2013-08-11 10:15:00,
2013-08-11 03:25:00,57.8,54.6,30.01,South,175,1.0,1.0,89,0.00,,,0.00,Wunderground v.1.15,2013-08-11 10:25:00,
2013-08-11 03:35:00,57.7,54.5,30.01,South,185,0.0,4.0,89,0.00,,,0.00,Wunderground v.1.15,2013-08-11 10:35:00,
2013-08-11 03:40:00,57.7,54.5,30.01,SSW,204,0.0,4.0,89,0.00,,,0.00,Wunderground v.1.15,2013-08-11 10:40:00,
2013-08-11 03:45:00,57.8,54.6,30.01,SE,129,1.0,4.0,89,0.00,,,0.00,Wunderground v.1.15,2013-08-11 10:45:00,
2013-08-11 03:55:00,58.0,54.5,30.01,South,180,1.0,4.0,88,0.00,,,0.00,Wunderground v.1.15,2013-08-11 10:55:00,
2013-08-11 04:05:00,58.1,54.6,30.02,SSW,193,1.0,1.0,88,0.00,,,0.00,Wunderground v.1.15,2013-08-11 11:05:00,
2013-08-11 04:10:00,58.1,54.6,30.01,SW,224,1.0,1.0,88,0.00,,,0.00,Wunderground v.1.15,2013-08-11 11:10:00,
2013-08-11 04:15:00,58.0,54.5,30.01,SSW,195,1.0,1.0,88,0.00,,,0.00,Wunderground v.1.15,2013-08-11 11:15:00,
2013-08-11 04:25:00,57.8,54.3,30.01,SSW,196,0.0,2.0,88,0.00,,,0.00,Wunderground v.1.15,2013-08-11 11:25:00,
2013-08-11 04:35:00,57.6,54.4,30.01,SE,134,0.0,4.0,89,0.00,,,0.00,Wunderground v.1.15,2013-08-11 11:35:00,
2013-08-11 04:45:00,57.3,54.1,30.02,South,175,0.0,4.0,89,0.00,,,0.00,Wunderground v.1.15,2013-08-11 11:45:00,
2013-08-11 04:55:00,57.2,54.0,30.02,SSW,202,0.0,4.0,89,0.00,,,0.00,Wunderground v.1.15,2013-08-11 11:55:00,
2013-08-11 05:05:00,57.2,54.0,30.03,South,175,0.0,0.0,89,0.00,,,0.00,Wunderground v.1.15,2013-08-11 12:05:00,
2013-08-11 05:15:00,57.3,54.1,30.03,SSW,212,0.0,0.0,89,0.00,,,0.00,Wunderground v.1.15,2013-08-11 12:15:00,
2013-08-11 05:25:00,57.4,54.2,30.03,SW,226,0.0,0.0,89,0.00,,,0.00,Wunderground v.1.15,2013-08-11 12:25:00,
2013-08-11 05:35:00,57.4,53.9,30.03,South,180,0.0,4.0,88,0.00,,,0.00,Wunderground v.1.15,2013-08-11 12:35:00,
2013-08-11 05:45:00,57.2,53.7,30.03,NW,307,0.0,4.0,88,0.00,,,0.00,Wunderground v.1.15,2013-08-11 12:45:00,
2013-08-11 05:55:00,57.0,53.5,30.03,South,180,0.0,4.0,88,0.00,,,0.00,Wunderground v.1.15,2013-08-11 12:55:00,
2013-08-11 06:10:00,57.0,53.8,30.03,SW,226,0.0,0.0,89,0.00,,,0.00,Wunderground v.1.15,2013-08-11 13:10:00,
2013-08-11 06:15:00,57.1,53.9,30.04,SSW,206,0.0,0.0,89,0.00,,,0.00,Wunderground v.1.15,2013-08-11 13:15:00,
2013-08-11 06:25:00,57.3,53.8,30.04,South,185,0.0,0.0,88,0.00,,,0.00,Wunderground v.1.15,2013-08-11 13:25:00,
2013-08-11 06:35:00,57.5,54.0,30.04,SSE,147,0.0,3.0,88,0.00,,,0.00,Wunderground v.1.15,2013-08-11 13:35:00,
2013-08-11 06:45:00,57.6,53.8,30.03,SSE,162,0.0,3.0,87,0.00,,,0.00,Wunderground v.1.15,2013-08-11 13:45:00,
2013-08-11 06:55:00,57.7,53.9,30.03,SW,224,0.0,3.0,87,0.00,,,0.00,Wunderground v.1.15,2013-08-11 13:55:00,
2013-08-11 07:05:00,57.8,54.0,30.03,SSW,208,0.0,1.0,87,0.00,,,0.00,Wunderground v.1.15,2013-08-11 14:05:00,
2013-08-11 07:15:00,57.9,53.7,30.03,SSE,158,1.0,1.0,86,0.00,,,0.00,Wunderground v.1.15,2013-08-11 14:15:00,
2013-08-11 07:25:00,58.0,53.8,30.03,SSW,208,0.0,1.0,86,0.00,,,0.00,Wunderground v.1.15,2013-08-11 14:25:00,
2013-08-11 07:35:00,58.1,53.6,30.03,SSE,151,0.0,3.0,85,0.00,,,0.00,Wunderground v.1.15,2013-08-11 14:35:00,
2013-08-11 07:40:00,58.4,53.6,30.03,SSW,202,1.0,3.0,84,0.00,,,0.00,Wunderground v.1.15,2013-08-11 14:40:00,
2013-08-11 07:45:00,58.9,53.7,30.03,SSE,160,1.0,3.0,83,0.00,,,0.00,Wunderground v.1.15,2013-08-11 14:45:00,
2013-08-11 07:55:00,59.3,53.8,30.03,South,191,1.0,3.0,82,0.00,,,0.00,Wunderground v.1.15,2013-08-11 14:55:00,
2013-08-11 08:00:00,60.2,54.0,30.03,SSW,195,0.0,0.0,80,0.00,,,0.00,Wunderground v.1.15,2013-08-11 15:00:00,
2013-08-11 08:10:00,61.8,54.5,30.04,South,185,1.0,2.0,77,0.00,,,0.00,Wunderground v.1.15,2013-08-11 15:10:00,
2013-08-11 08:15:00,61.5,54.2,30.04,SE,127,2.0,2.0,77,0.00,,,0.00,Wunderground v.1.15,2013-08-11 15:15:00,
2013-08-11 08:25:00,61.6,54.7,30.03,South,189,2.0,2.0,78,0.00,,,0.00,Wunderground v.1.15,2013-08-11 15:25:00,
2013-08-11 08:35:00,62.4,54.7,30.02,South,180,1.0,4.0,76,0.00,,,0.00,Wunderground v.1.15,2013-08-11 15:35:00,
2013-08-11 08:45:00,63.3,54.9,30.03,South,189,0.0,4.0,74,0.00,,,0.00,Wunderground v.1.15,2013-08-11 15:45:00,
2013-08-11 08:55:00,64.9,55.7,30.03,NW,308,1.0,4.0,72,0.00,,,0.00,Wunderground v.1.15,2013-08-11 15:55:00,
2013-08-11 09:05:00,65.7,55.6,30.04,NNW,335,1.0,2.0,70,0.00,,,0.00,Wunderground v.1.15,2013-08-11 16:05:00,
2013-08-11 09:15:00,66.5,55.6,30.01,South,180,0.0,3.0,68,0.00,,,0.00,Wunderground v.1.15,2013-08-11 16:15:00,
2013-08-11 09:25:00,67.4,55.6,30.04,SSE,167,0.0,1.0,66,0.00,,,0.00,Wunderground v.1.15,2013-08-11 16:25:00,
2013-08-11 09:35:00,68.1,55.5,30.04,SSE,156,0.0,6.0,64,0.00,,,0.00,Wunderground v.1.15,2013-08-11 16:35:00,
2013-08-11 09:45:00,67.9,55.7,30.04,South,185,0.0,6.0,65,0.00,,,0.00,Wunderground v.1.15,2013-08-11 16:45:00,
2013-08-11 10:00:00,70.0,55.9,30.04,South,175,0.0,0.0,61,0.00,,,0.00,Wunderground v.1.15,2013-08-11 17:00:00,
2013-08-11 10:10:00,69.7,55.6,30.04,SSE,156,0.0,1.0,61,0.00,,,0.00,Wunderground v.1.15,2013-08-11 17:10:00,
2013-08-11 10:15:00,69.6,55.6,30.04,SSE,153,0.0,1.0,61,0.00,,,0.00,Wunderground v.1.15,2013-08-11 17:15:00,
2013-08-11 10:25:00,68.5,55.4,30.04,South,185,1.0,1.0,63,0.00,,,0.00,Wunderground v.1.15,2013-08-11 17:25:00,
2013-08-11 10:35:00,70.6,56.0,30.04,NW,317,0.0,4.0,60,0.00,,,0.00,Wunderground v.1.15,2013-08-11 17:35:00,
2013-08-11 10:45:00,71.6,56.5,30.04,SSW,192,1.0,4.0,59,0.00,,,0.00,Wunderground v.1.15,2013-08-11 17:45:00,
2013-08-11 10:55:00,70.5,55.9,30.04,West,262,0.0,4.0,60,0.00,,,0.00,Wunderground v.1.15,2013-08-11 17:55:00,
2013-08-11 11:05:00,70.5,55.0,30.04,SSE,165,0.0,0.0,58,0.00,,,0.00,Wunderground v.1.15,2013-08-11 18:05:00,
2013-08-11 11:15:00,69.7,55.2,30.04,NNE,20,0.0,0.0,60,0.00,,,0.00,Wunderground v.1.15,2013-08-11 18:15:00,
2013-08-11 11:25:00,69.9,54.9,30.04,SW,234,0.0,0.0,59,0.00,,,0.00,Wunderground v.1.15,2013-08-11 18:25:00,
2013-08-11 11:35:00,70.1,55.6,30.04,South,175,0.0,1.0,60,0.00,,,0.00,Wunderground v.1.15,2013-08-11 18:35:00,
2013-08-11 11:45:00,70.3,55.3,30.04,SE,143,0.0,5.0,59,0.00,,,0.00,Wunderground v.1.15,2013-08-11 18:45:00,
2013-08-11 11:55:00,70.1,54.6,30.04,SSW,193,0.0,5.0,58,0.00,,,0.00,Wunderground v.1.15,2013-08-11 18:55:00,
2013-08-11 12:05:00,69.9,54.4,30.04,NW,312,0.0,0.0,58,0.00,,,0.00,Wunderground v.1.15,2013-08-11 19:05:00,
2013-08-11 12:15:00,71.0,55.5,30.03,South,175,0.0,0.0,58,0.00,,,0.00,Wunderground v.1.15,2013-08-11 19:15:00,
2013-08-11 12:25:00,72.1,55.0,30.04,SSE,159,0.0,3.0,55,0.00,,,0.00,Wunderground v.1.15,2013-08-11 19:25:00,
2013-08-11 12:35:00,72.6,55.5,30.03,NNE,16,0.0,4.0,55,0.00,,,0.00,Wunderground v.1.15,2013-08-11 19:35:00,
2013-08-11 12:45:00,72.6,55.0,30.03,NNW,330,0.0,4.0,54,0.00,,,0.00,Wunderground v.1.15,2013-08-11 19:45:00,
2013-08-11 12:55:00,72.6,55.5,30.03,NW,314,0.0,4.0,55,0.00,,,0.00,Wunderground v.1.15,2013-08-11 19:55:00,
2013-08-11 13:05:00,72.9,55.3,30.03,NW,324,1.0,1.0,54,0.00,,,0.00,Wunderground v.1.15,2013-08-11 20:05:00,
2013-08-11 13:15:00,73.7,55.5,30.03,NW,321,0.0,1.0,53,0.00,,,0.00,Wunderground v.1.15,2013-08-11 20:15:00,
2013-08-11 13:25:00,74.0,55.8,30.03,NE,49,0.0,0.0,53,0.00,,,0.00,Wunderground v.1.15,2013-08-11 20:25:00,
2013-08-11 13:30:00,73.7,55.5,30.03,North,353,0.0,0.0,53,0.00,,,0.00,Wunderground v.1.15,2013-08-11 20:30:00,
2013-08-11 13:35:00,74.0,55.8,30.03,NNW,331,0.0,4.0,53,0.00,,,0.00,Wunderground v.1.15,2013-08-11 20:35:00,
2013-08-11 13:45:00,74.4,55.1,30.03,NW,314,0.0,4.0,51,0.00,,,0.00,Wunderground v.1.15,2013-08-11 20:45:00,
2013-08-11 13:55:00,74.8,55.5,30.02,SSE,156,0.0,4.0,51,0.00,,,0.00,Wunderground v.1.15,2013-08-11 20:55:00,
2013-08-11 14:00:00,75.2,55.8,30.02,SE,142,0.0,0.0,51,0.00,,,0.00,Wunderground v.1.15,2013-08-11 21:00:00,
2013-08-11 14:05:00,75.8,56.4,30.02,SSE,168,0.0,0.0,51,0.00,,,0.00,Wunderground v.1.15,2013-08-11 21:05:00,
2013-08-11 14:15:00,75.3,56.5,30.02,South,185,0.0,2.0,52,0.00,,,0.00,Wunderground v.1.15,2013-08-11 21:15:00,
2013-08-11 14:25:00,75.5,55.6,30.02,SSE,156,0.0,1.0,50,0.00,,,0.00,Wunderground v.1.15,2013-08-11 21:25:00,
2013-08-11 14:35:00,74.6,54.7,30.02,SSW,193,1.0,2.0,50,0.00,,,0.00,Wunderground v.1.15,2013-08-11 21:35:00,
2013-08-11 14:40:00,74.2,54.9,30.02,South,175,1.0,1.0,51,0.00,,,0.00,Wunderground v.1.15,2013-08-11 21:40:00,
2013-08-11 14:50:00,74.2,56.0,30.02,SSW,202,0.0,4.0,53,0.00,,,0.00,Wunderground v.1.15,2013-08-11 21:50:00,
2013-08-11 14:55:00,74.0,55.8,30.01,South,185,1.0,4.0,53,0.00,,,0.00,Wunderground v.1.15,2013-08-11 21:55:00,
2013-08-11 15:05:00,74.3,56.1,30.02,SE,135,0.0,1.0,53,0.00,,,0.00,Wunderground v.1.15,2013-08-11 22:05:00,
2013-08-11 15:15:00,75.2,56.9,30.02,SSE,158,0.0,0.0,53,0.00,,,0.00,Wunderground v.1.15,2013-08-11 22:15:00,
2013-08-11 15:25:00,75.5,57.2,30.01,SSE,164,0.0,0.0,53,0.00,,,0.00,Wunderground v.1.15,2013-08-11 22:25:00,
2013-08-11 15:35:00,77.2,57.7,30.00,ENE,77,0.0,5.0,51,0.00,,,0.00,Wunderground v.1.15,2013-08-11 22:35:00,
2013-08-11 15:45:00,78.4,55.9,30.00,NNW,329,0.0,5.0,46,0.00,,,0.00,Wunderground v.1.15,2013-08-11 22:45:00,
2013-08-11 15:55:00,78.1,55.6,30.00,South,185,0.0,5.0,46,0.00,,,0.00,Wunderground v.1.15,2013-08-11 22:55:00,
2013-08-11 16:00:00,78.3,55.8,29.99,NW,306,0.0,0.0,46,0.00,,,0.00,Wunderground v.1.15,2013-08-11 23:00:00,
2013-08-11 16:10:00,78.9,55.1,29.99,SSW,196,0.0,3.0,44,0.00,,,0.00,Wunderground v.1.15,2013-08-11 23:10:00,
2013-08-11 16:15:00,78.5,55.4,29.98,NNW,336,1.0,3.0,45,0.00,,,0.00,Wunderground v.1.15,2013-08-11 23:15:00,
2013-08-11 16:25:00,78.3,55.2,29.98,SSE,168,0.0,1.0,45,0.00,,,0.00,Wunderground v.1.15,2013-08-11 23:25:00,
2013-08-11 16:40:00,77.8,55.4,29.98,South,185,0.0,3.0,46,0.00,,,0.00,Wunderground v.1.15,2013-08-11 23:40:00,
2013-08-11 16:45:00,77.6,55.2,29.98,SSE,161,0.0,3.0,46,0.00,,,0.00,Wunderground v.1.15,2013-08-11 23:45:00,
2013-08-11 16:55:00,76.4,55.8,29.98,South,185,0.0,3.0,49,0.00,,,0.00,Wunderground v.1.15,2013-08-11 23:55:00,
2013-08-11 17:05:00,74.9,56.1,29.98,SSE,147,0.0,0.0,52,0.00,,,0.00,Wunderground v.1.15,2013-08-12 00:05:00,
2013-08-11 17:15:00,74.8,56.5,29.98,SSE,152,0.0,0.0,53,0.00,,,0.00,Wunderground v.1.15,2013-08-12 00:15:00,
2013-08-11 17:25:00,75.9,56.5,29.98,SSE,147,0.0,0.0,51,0.00,,,0.00,Wunderground v.1.15,2013-08-12 00:25:00,
2013-08-11 17:35:00,76.5,56.5,29.98,South,185,0.0,3.0,50,0.00,,,0.00,Wunderground v.1.15,2013-08-12 00:35:00,
2013-08-11 17:45:00,75.9,56.5,29.98,South,185,0.0,3.0,51,0.00,,,0.00,Wunderground v.1.15,2013-08-12 00:45:00,
2013-08-11 17:55:00,76.1,56.7,29.97,South,185,0.0,3.0,51,0.00,,,0.00,Wunderground v.1.15,2013-08-12 00:55:00,
2013-08-11 18:00:00,76.1,56.1,29.97,WSW,257,0.0,0.0,50,0.00,,,0.00,Wunderground v.1.15,2013-08-12 01:00:00,
2013-08-11 18:05:00,75.9,55.9,29.97,SW,227,0.0,0.0,50,0.00,,,0.00,Wunderground v.1.15,2013-08-12 01:05:00,
2013-08-11 18:15:00,75.3,55.9,29.96,SSW,197,0.0,0.0,51,0.00,,,0.00,Wunderground v.1.15,2013-08-12 01:15:00,
2013-08-11 18:25:00,74.8,56.0,29.96,South,175,0.0,0.0,52,0.00,,,0.00,Wunderground v.1.15,2013-08-12 01:25:00,
2013-08-11 18:35:00,74.4,55.6,29.96,South,180,0.0,1.0,52,0.00,,,0.00,Wunderground v.1.15,2013-08-12 01:35:00,
2013-08-11 18:40:00,74.2,56.0,29.96,South,180,0.0,1.0,53,0.00,,,0.00,Wunderground v.1.15,2013-08-12 01:40:00,
2013-08-11 18:45:00,74.2,56.0,29.96,South,180,0.0,1.0,53,0.00,,,0.00,Wunderground v.1.15,2013-08-12 01:45:00,
2013-08-11 18:55:00,73.9,58.7,29.96,NW,305,0.0,1.0,59,0.00,,,0.00,Wunderground v.1.15,2013-08-12 01:55:00,
2013-08-11 19:05:00,72.9,58.7,29.97,NE,40,0.0,1.0,61,0.00,,,0.00,Wunderground v.1.15,2013-08-12 02:05:00,
2013-08-11 19:15:00,72.0,58.3,29.97,WNW,303,0.0,2.0,62,0.00,,,0.00,Wunderground v.1.15,2013-08-12 02:15:00,
2013-08-11 19:25:00,70.7,57.9,29.97,WNW,303,1.0,2.0,64,0.00,,,0.00,Wunderground v.1.15,2013-08-12 02:25:00,
2013-08-11 19:30:00,70.0,57.7,29.97,WNW,300,1.0,3.0,65,0.00,,,0.00,Wunderground v.1.15,2013-08-12 02:30:00,
2013-08-11 19:35:00,69.5,57.6,29.97,NW,306,1.0,3.0,66,0.00,,,0.00,Wunderground v.1.15,2013-08-12 02:35:00,
2013-08-11 19:45:00,68.4,57.0,29.97,WNW,283,1.0,1.0,67,0.00,,,0.00,Wunderground v.1.15,2013-08-12 02:45:00,
2013-08-11 19:55:00,67.6,57.1,29.97,NNE,12,1.0,1.0,69,0.00,,,0.00,Wunderground v.1.15,2013-08-12 02:55:00,
2013-08-11 20:00:00,67.1,56.6,29.97,WNW,303,1.0,8.0,69,0.00,,,0.00,Wunderground v.1.15,2013-08-12 03:00:00,
2013-08-11 20:05:00,66.6,56.5,29.98,NNW,345,2.0,8.0,70,0.00,,,0.00,Wunderground v.1.15,2013-08-12 03:05:00,
2013-08-11 20:15:00,65.7,56.0,29.98,WNW,299,2.0,2.0,71,0.00,,,0.00,Wunderground v.1.15,2013-08-12 03:15:00,
2013-08-11 20:25:00,65.2,55.9,29.98,NNE,29,1.0,1.0,72,0.00,,,0.00,Wunderground v.1.15,2013-08-12 03:25:00,
2013-08-11 20:35:00,64.8,55.6,29.98,North,2,1.0,7.0,72,0.00,,,0.00,Wunderground v.1.15,2013-08-12 03:35:00,
2013-08-11 20:45:00,64.4,55.2,29.98,NW,310,1.0,7.0,72,0.00,,,0.00,Wunderground v.1.15,2013-08-12 03:45:00,
2013-08-11 20:55:00,63.6,54.8,29.98,North,6,3.0,7.0,73,0.00,,,0.00,Wunderground v.1.15,2013-08-12 03:55:00,
2013-08-11 21:00:00,63.2,54.8,29.98,NNW,328,3.0,3.0,74,0.00,,,0.00,Wunderground v.1.15,2013-08-12 04:00:00,
2013-08-11 21:05:00,63.1,54.7,29.98,NNE,23,1.0,3.0,74,0.00,,,0.00,Wunderground v.1.15,2013-08-12 04:05:00,
2013-08-11 21:10:00,63.0,54.9,29.98,NNW,347,1.0,1.0,75,0.00,,,0.00,Wunderground v.1.15,2013-08-12 04:10:00,
2013-08-11 21:15:00,63.0,55.3,29.98,NNW,341,0.0,1.0,76,0.00,,,0.00,Wunderground v.1.15,2013-08-12 04:15:00,
2013-08-11 21:20:00,62.9,55.2,29.98,North,2,0.0,2.0,76,0.00,,,0.00,Wunderground v.1.15,2013-08-12 04:20:00,
2013-08-11 21:25:00,62.7,55.0,29.98,NW,315,1.0,2.0,76,0.00,,,0.00,Wunderground v.1.15,2013-08-12 04:25:00,
2013-08-11 21:35:00,62.5,55.2,29.98,NNE,17,1.0,7.0,77,0.00,,,0.00,Wunderground v.1.15,2013-08-12 04:35:00,
2013-08-11 21:40:00,62.3,55.0,29.99,NW,320,2.0,7.0,77,0.00,,,0.00,Wunderground v.1.15,2013-08-12 04:40:00,
2013-08-11 21:45:00,62.2,54.9,29.99,NNE,12,1.0,7.0,77,0.00,,,0.00,Wunderground v.1.15,2013-08-12 04:45:00,
2013-08-11 21:55:00,62.1,54.8,29.98,NNW,345,1.0,7.0,77,0.00,,,0.00,Wunderground v.1.15,2013-08-12 04:55:00,
2013-08-11 22:05:00,62.0,54.3,29.99,North,351,1.0,1.0,76,0.00,,,0.00,Wunderground v.1.15,2013-08-12 05:05:00,
2013-08-11 22:15:00,61.8,54.5,29.99,North,351,1.0,1.0,77,0.00,,,0.00,Wunderground v.1.15,2013-08-12 05:15:00,
2013-08-11 22:25:00,61.5,54.2,29.99,North,7,1.0,1.0,77,0.00,,,0.00,Wunderground v.1.15,2013-08-12 05:25:00,
2013-08-11 22:35:00,61.3,54.0,29.99,SW,222,1.0,9.0,77,0.00,,,0.00,Wunderground v.1.15,2013-08-12 05:35:00,
2013-08-11 22:45:00,60.9,54.0,29.99,NNW,329,0.0,9.0,78,0.00,,,0.00,Wunderground v.1.15,2013-08-12 05:45:00,
2013-08-11 22:55:00,60.8,54.2,30.00,NNW,345,0.0,9.0,79,0.00,,,0.00,Wunderground v.1.15,2013-08-12 05:55:00,
2013-08-11 23:05:00,60.6,54.0,30.00,NNE,16,0.0,0.0,79,0.00,,,0.00,Wunderground v.1.15,2013-08-12 06:05:00,
2013-08-11 23:15:00,60.4,54.2,30.00,NW,322,1.0,1.0,80,0.00,,,0.00,Wunderground v.1.15,2013-08-12 06:15:00,
2013-08-11 23:25:00,60.3,54.1,30.00,WNW,299,1.0,4.0,80,0.00,,,0.00,Wunderground v.1.15,2013-08-12 06:25:00,
2013-08-11 23:35:00,60.0,54.2,30.00,NW,324,0.0,10.0,81,0.00,,,0.00,Wunderground v.1.15,2013-08-12 06:35:00,
2013-08-11 23:45:00,59.7,54.5,30.00,NW,309,0.0,10.0,83,0.00,,,0.00,Wunderground v.1.15,2013-08-12 06:45:00,
2013-08-11 23:55:00,59.5,54.7,30.00,North,351,0.0,10.0,84,0.00,,,0.00,Wunderground v.1.15,2013-08-12 06:55:00,